Home   Weather   Entebbe   Past weeks

Flag for Uganda Past Weather in Entebbe, Uganda — Yesterday and Last 2 Weeks

Now
75 °F

Passing clouds.


Feels Like: 75 °F
Forecast: 69 / 77 °F
Wind: 7 mph from South

Location: Entebbe Airport

Current Time: May 25, 2017 at 9:23:49 pm

Latest Report: May 25, 2017 at 7:00 pm


Visibility: N/A

Pressure: 29.98 "Hg (26.24 "Hg at 1160m altitude)

Humidity: 83%

Dew Point: 70 °F

Location of EntebbeLocation

Past Weather in Entebbe — Graph

°F

Entebbe Temperature Yesterday

Maximum temperature yesterday: 79 °F (at 2:00 pm)
Minimum temperature yesterday: 70 °F (at 8:00 am)
Average temperature yesterday: 74 °F

High & Low Weather Summary for the Past Weeks

 TemperatureHumidityPressure
High86 °F (May 20, 5:00 pm)100% (May 15, 1:00 am)30.21 "Hg (May 15, 1:00 am)
Low66 °F (May 14, 5:30 am)52% (May 20, 5:00 pm)29.95 "Hg (May 13, 6:00 pm)
Average73 °F85%30.05 "Hg
* Reported May 10 7:00 pm — May 25 7:00 pm, Entebbe. Weather by CustomWeather, © 2017

Note: Actual official high and low records may vary slightly from our data, if they occured in-between our weather recording intervals... More about our weather records

Advertising

Entebbe Weather History for the Previous 24 Hours

Scroll right to see more
 ConditionsComfort  
Time TempWeatherWind HumidityBarometerVisibility
7:00 pm
Thu, May 25
75 °FPassing clouds.7 mph83%29.98 "HgN/A
6:00 pm77 °FScattered clouds.9 mph79%29.98 "HgN/A
5:00 pm79 °FScattered clouds.9 mph74%29.98 "HgN/A
4:00 pm79 °FScattered clouds.7 mph74%29.98 "HgN/A
2:00 pm79 °FPartly sunny.14 mph79%30.04 "HgN/A
1:30 pm79 °FScattered clouds.14 mph74%30.07 "HgN/A
1:00 pm79 °FScattered clouds.12 mph74%30.07 "HgN/A
12:00 pm77 °FPartly sunny.12 mph83%30.09 "HgN/A
11:00 am77 °FScattered clouds.7 mph83%30.09 "HgN/A
10:00 am75 °FScattered clouds.7 mph89%30.09 "HgN/A
9:00 am73 °FPartly sunny.7 mph83%30.07 "HgN/A
8:00 am70 °FPartly sunny.6 mph100%30.07 "HgN/A
7:30 am70 °FPartly sunny.3 mph100%30.04 "HgN/A
7:00 am68 °FScattered clouds.1 mph100%30.04 "HgN/A
6:30 am68 °FPassing clouds.3 mph100%30.04 "HgN/A
6:00 am68 °FPassing clouds.3 mph100%30.04 "HgN/A
5:30 am70 °FPassing clouds.2 mph100%30.01 "HgN/A
5:00 am70 °FPassing clouds.7 mph100%30.01 "HgN/A
4:30 am70 °FPassing clouds.2 mph100%30.01 "HgN/A
4:00 am70 °FPassing clouds.7 mph100%30.01 "HgN/A
3:30 am70 °FPassing clouds.3 mph100%30.01 "HgN/A
3:00 am70 °FPassing clouds.3 mph100%30.01 "HgN/A
2:30 am72 °FPassing clouds.7 mph94%30.01 "HgN/A
2:00 am70 °FPassing clouds.5 mph100%30.01 "HgN/A
1:30 am70 °FPassing clouds.3 mph100%30.04 "HgN/A
1:00 am70 °FPassing clouds.6 mph94%30.04 "HgN/A
12:30 am70 °FPassing clouds.6 mph94%30.04 "HgN/A
12:00 am70 °FPassing clouds.7 mph94%30.04 "HgN/A
11:30 pm
Wed, May 24
70 °FPassing clouds.8 mph94%30.04 "HgN/A
11:00 pm70 °FPassing clouds.6 mph94%30.07 "HgN/A
10:30 pm72 °FPassing clouds.6 mph88%30.07 "HgN/A
10:00 pm72 °FPassing clouds.6 mph88%30.07 "HgN/A
9:30 pm72 °FPassing clouds.6 mph88%30.07 "HgN/A
9:00 pm72 °FPassing clouds.8 mph88%30.04 "HgN/A
Weather by CustomWeather, © 2017

See weather overviewHow to use our weather pages